Location: Chuathbaluk
(61.5726°N, 159.2454°W)
Time: 14:47:10
(UTC+00:00)

N. Korean satellite - Pass Details

Date: 02 November 2020
Orbit: 453 x 503 km, 97.2° (Epoch: 03 December)

Event Time Altitude Azimuth Distance (km) Brightness Sun altitude
Rises 16:49:08 0° 15° (NNE) 2,489 10.2 -9.9°
Reaches altitude 10° 16:51:11 10° 13° (NNE) 1,608 9.2 -9.6°
Maximum altitude 16:54:37 71° 290° (WNW) 487 6.3 -9.2°
Drops below altitude 10° 16:58:01 10° 206° (SSW) 1,597 9.1 -8.8°
Sets 17:00:03 0° 204° (SSW) 2,469 10.1 -8.6°
